Location: Wildlife_Club
(35.6000°N, 81.4330°W)
Time: 01:13:38
(UTC-04:00)

Vanguard 2 Rocket - Pass Details

Date: 18 June 2019
Orbit: 554 x 3326 km, 32.9° (Epoch: 22 July)

Event Time Altitude Azimuth Distance (km) Brightness Sun altitude
Rises 22:18:47 0° 219° (SW) 3,808 10.0 -16.1°
Reaches altitude 10° 22:21:11 10° 210° (SSW) 3,127 9.5 -16.4°
Maximum altitude 22:28:36 40° 144° (SE) 2,352 8.5 -17.5°
Drops below altitude 10° 22:41:00 10° 82° (E) 5,206 10.4 -19.1°
Sets 22:46:18 0° 76° (ENE) 6,623 11.1 -19.8°
